sat.trackr.live / text

‹ back to catalog

ONEWEB-0435

NORAD 51632 · 2022-012L

PAYLOAD ACTIVE UNKNOWN

§ Identity

Operator
Country
UK
Launch date
2022-02-10
Launch site
FRGUI
Launch vehicle
Mass (kg)
RCS (m²)

Purposes: comms

External: N2YO · Heavens-Above · Gunter

§ Orbital elements

Epoch: 2026-09-20T00:44:29.658912Z

Period
109.89 min
Inclination
87.8895°
Eccentricity
0.0001695
Mean motion
13.10371619 rev/d
Perigee alt
1,220.4 km
Apogee alt
1,223.0 km
Semi-major
7,599.9 km
B*
-1.2165e-3
RAAN
17.3940°
Arg perigee
90.1740°
Mean anomaly
269.9581°
Rev number
22,173

§ Raw data

ONEWEB-04351 51632U 22012L   26263.03089883 -.00000412  00000+0 -12165-2 0  99972 51632  87.8895  17.3940 0001695  90.1740 269.9581 13.10371619221737

JSON: /api/v1/satellites/51632 · /tle

For live sub-satellite position, see the globe view (requires WebGL).

§ Visibility from observer

Set your observer location to see the next 7 days of passes ≥ 10°. The values pass through the URL so the page stays shareable.

No JS? Fill the form by hand. The geolocation button needs JavaScript.